Location: Melita
(38.4566°N, 122.6369°W)
Time: 21:27:20
(UTC+00:00)

CZ-3 R/B - Pass Details

Date: 24 January 2020
Orbit: 346 x 10270 km, 28.4° (Epoch: 18 February)

Event Time Altitude Azimuth Distance (km) Brightness Sun altitude
Exits shadow 14:36:10 - 270° (W) 7,297 5.4 -9.3°
Reaches altitude 10° 14:38:56 10° 268° (W) 6,392 5.1 -8.8°
Maximum altitude 14:51:52 32° 213° (SSW) 2,183 3.2 -6.3°
Drops below altitude 10° 14:56:44 10° 150° (SSE) 2,344 4.4 -5.5°
Sets 14:58:31 0° 137° (SE) 2,893 5.3 -5.1°
